User: anonymous   Login
Location: Bacharowice
(49.9333°N, 19.5833°E)
Time: 16:23:16
(UTC+00:00)
Language:

BREEZE-M DEB (TANK) - Orbit

View from above orbital plane
View from above orbital plane
View from above satellite
View from above satellite

Ground track
Ground track

The orbit data is extracted from the following two-line orbital elements,

1 36501U 10010C   21210.55973562  .00000786  00000-0  19251-3 0  9997
2 36501  49.6920  31.0328 4877718 217.5818  95.6489  5.80581672237823
Epoch (UTC): 29 July 2021 13:26:01
Eccentricity: 0.4877718
inclination: 49.6920°
perigee height: 320 km
apogee height: 13076 km
right ascension of ascending node: 31.0328°
argument of perigee: 217.5818°
revolutions per day: 5.80581672
mean anomaly at epoch: 95.6489°
orbit number at epoch: 23782

The dashed part of the orbit path shows where the satellite is in the earth's shadow,  

DLR